Theta_e
356 355 358 357 356 356 358 357 356 358 353 354 353 349 343 336 332 330 328 329 337 342 344 340 342 349 349 346 352 351 350 353 357 356 353 351 353 350 346 346 345 346 346 346 346 346 347 347 348 349 349 349 350 352 352 351 351 351 351 352 353 353 354 353 351 349 348 348 347 347 348 349 350 350
355 355 354 357 356 358 358 356 355 355 358 354 349 348 353 345 335 332 330 329 337 338 342 342 342 351 351 356 352 353 350 352 355 355 353 352 351 347 346 345 345 344 344 343 343 344 345 346 346 345 344 345 346 348 349 350 350 350 350 350 351 351 352 350 349 349 349 348 348 347 348 349 349 349
358 355 354 355 356 358 357 355 355 356 355 354 353 351 350 348 342 341 334 330 335 345 340 344 349 348 351 355 354 355 353 355 354 352 353 353 351 349 349 346 345 343 342 340 340 340 340 341 341 340 340 341 342 344 345 346 347 348 348 348 349 348 348 347 346 347 347 347 348 347 347 348 348 348
357 354 354 354 355 359 359 357 357 357 359 356 353 353 353 350 347 343 339 336 336 342 345 346 349 351 348 351 350 348 352 355 356 351 350 352 353 353 352 350 345 342 341 340 339 338 336 336 336 338 340 341 343 344 344 344 345 345 344 344 344 344 345 344 344 344 345 345 345 345 346 346 347 347
356 356 354 352 355 357 355 355 357 357 356 358 356 354 353 351 351 348 343 339 340 343 347 349 350 352 352 350 351 350 352 355 355 353 350 350 350 351 351 351 347 343 340 339 338 337 336 335 335 336 338 340 341 343 345 344 343 342 340 341 339 338 340 340 340 342 343 343 343 343 343 344 345 345
359 356 353 354 356 357 355 356 355 355 354 354 353 354 356 354 354 351 346 343 340 341 343 348 353 354 356 351 351 350 350 351 352 353 353 353 352 352 352 352 353 347 343 339 336 336 335 335 335 335 336 338 338 339 340 339 337 337 337 336 335 335 334 335 336 339 339 341 342 342 342 343 343 343
358 357 356 355 356 360 356 356 356 355 354 353 352 352 354 353 353 354 351 346 344 344 346 349 351 352 351 351 351 353 356 356 356 355 355 355 357 357 356 354 355 349 345 342 339 338 337 336 335 334 335 336 335 335 334 333 332 331 331 330 332 333 333 332 334 336 336 338 340 341 341 341 341 342
358 357 355 355 356 356 354 355 355 354 354 352 352 352 354 353 353 354 356 352 348 348 346 346 351 351 351 352 353 354 355 354 354 353 353 356 358 359 360 358 357 353 346 343 340 338 337 336 335 333 333 332 331 330 329 328 328 328 328 327 327 327 328 328 329 332 332 333 334 336 338 340 340 338
358 357 356 355 355 354 353 353 354 354 353 353 352 352 352 353 355 356 356 355 354 350 349 350 350 353 354 355 356 355 355 356 355 355 355 356 356 355 356 358 359 350 346 344 343 342 340 338 336 335 333 332 330 329 328 327 327 326 326 326 326 326 326 326 325 326 327 327 329 328 330 334 336 336
359 358 357 357 356 355 354 353 354 353 353 353 353 352 352 353 353 352 351 353 353 352 351 350 349 348 352 351 353 356 357 356 355 356 357 357 358 357 357 359 362 363 363 362 361 349 345 342 337 335 334 332 329 329 328 328 327 326 325 322 321 323 323 323 324 324 324 324 326 327 328 330 331 332
359 359 359 357 357 356 355 354 353 353 353 353 353 354 354 353 353 353 353 352 352 351 350 350 351 351 353 354 353 355 359 359 358 355 354 353 357 359 358 358 361 364 365 358 351 351 350 345 344 336 331 331 331 330 329 329 328 328 325 322 321 321 321 321 322 322 322 322 323 322 322 324 328 330
357 358 359 359 358 357 356 355 354 353 353 354 353 354 355 355 353 352 352 351 352 351 351 351 351 350 352 351 355 357 354 351 352 356 356 353 353 355 356 360 359 358 358 358 360 355 354 354 353 345 346 345 343 340 339 340 339 335 329 326 326 326 323 322 322 322 321 320 319 319 320 320 322 324
357 358 359 359 359 359 367 362 360 359 359 355 353 353 353 353 354 353 353 352 350 350 351 351 352 351 351 351 351 351 350 350 351 354 354 355 352 353 353 356 359 360 358 357 360 360 361 359 359 358 357 357 353 352 345 346 346 333 327 326 327 326 325 323 322 322 322 321 320 319 318 319 320 322
355 356 358 360 369 367 362 354 351 349 352 358 357 355 354 354 353 353 352 352 353 352 351 352 352 351 351 352 351 351 351 354 354 352 352 350 350 350 351 352 353 358 358 357 355 357 360 357 355 356 355 357 357 356 357 351 333 329 326 325 325 325 325 324 323 322 322 321 320 319 317 317 319 319
354 355 356 357 365 369 370 358 347 346 345 346 349 352 359 363 356 354 353 354 354 353 353 353 352 352 352 352 352 351 352 353 351 353 352 350 347 348 346 346 349 359 357 355 352 353 356 355 353 354 355 356 356 357 353 332 330 326 326 326 325 325 325 325 325 325 323 321 320 320 318 317 317 317
354 354 355 356 357 357 356 360 358 350 346 342 343 344 346 350 356 357 357 355 354 354 354 353 353 352 352 352 350 352 352 351 351 350 350 348 347 347 345 346 348 354 358 354 351 350 354 355 353 353 355 356 357 350 334 328 328 327 325 326 326 325 324 324 325 325 324 324 324 323 322 321 320 318
353 353 353 353 355 356 367 365 358 356 354 344 338 340 342 344 343 340 343 349 359 357 355 354 353 353 351 349 350 352 351 351 350 347 345 345 347 350 349 349 350 354 356 353 349 347 352 353 352 351 354 353 345 342 336 328 328 327 326 326 326 324 324 324 325 324 324 324 323 321 320 318 318 317
352 352 352 351 351 350 352 354 354 355 354 353 350 347 346 348 351 345 337 335 337 343 350 348 346 347 346 345 346 350 351 351 349 346 345 345 346 349 351 351 352 355 358 352 347 345 350 353 351 346 346 343 340 340 334 327 327 327 325 324 324 323 322 323 323 323 323 323 322 320 317 315 315 315
353 352 352 352 351 350 349 350 354 353 354 353 352 350 348 349 349 351 352 350 348 345 345 345 347 348 348 347 348 349 350 351 350 350 348 349 352 353 350 349 352 353 355 353 347 343 343 343 336 337 338 339 338 338 332 330 327 326 324 324 324 321 321 322 322 321 321 321 321 320 316 315 314 312
354 354 353 352 352 351 351 353 346 353 355 355 354 352 351 351 351 352 355 344 347 354 352 350 349 350 351 344 350 351 351 350 351 355 357 353 350 346 346 346 349 348 351 344 340 336 335 338 334 334 336 337 334 336 338 332 328 326 324 325 322 320 319 319 320 320 320 320 321 319 316 313 312 310
354 356 355 353 353 353 352 348 336 337 353 353 356 356 356 357 356 356 359 342 334 335 333 334 336 335 335 334 333 331 333 346 350 351 348 349 350 346 343 344 344 347 347 340 340 338 333 335 332 331 332 334 333 335 336 336 329 325 324 323 321 319 319 318 318 318 319 319 321 320 317 314 313 312
356 360 368 366 354 353 353 341 333 334 344 348 349 351 354 356 358 360 364 365 357 334 330 330 330 331 333 335 335 336 334 333 343 350 347 350 347 346 344 343 345 345 341 338 341 333 332 333 332 331 331 329 332 334 333 334 332 329 327 323 322 318 318 318 317 318 317 319 319 319 316 313 312 317
352 352 360 366 361 357 352 337 332 331 342 350 350 349 349 350 351 355 358 360 359 355 351 351 348 347 346 346 344 345 334 331 341 349 351 352 348 346 346 346 342 341 339 337 341 330 329 329 330 330 327 322 327 331 332 332 332 333 334 331 327 319 320 319 318 316 316 317 317 318 316 313 313 322
350 351 351 350 334 330 332 331 327 326 328 351 354 353 352 350 350 355 355 356 357 356 357 357 356 353 355 354 351 349 348 346 348 347 349 350 350 348 347 347 345 343 337 338 340 329 331 329 328 331 329 323 322 327 330 330 331 332 331 325 323 322 323 323 321 319 316 316 316 317 315 313 311 322
351 351 352 352 340 328 324 322 321 319 319 334 356 356 355 355 354 355 356 357 370 360 357 355 357 358 355 355 354 352 352 352 353 351 348 350 351 350 349 347 345 342 340 340 336 333 330 330 329 327 326 325 324 325 326 328 329 329 329 323 322 323 323 324 324 325 319 318 317 317 314 310 310 315
352 353 353 354 345 331 325 321 318 316 317 320 345 356 337 338 341 356 358 358 359 357 356 352 351 352 353 356 356 356 356 356 356 355 356 355 354 354 353 349 340 334 335 342 333 334 330 330 328 325 323 321 322 323 322 324 327 328 325 322 322 321 322 323 323 323 324 325 328 322 316 312 312 311
354 355 355 356 351 330 322 319 318 317 317 321 333 328 328 330 334 351 357 356 355 351 351 351 350 348 350 350 352 354 354 355 343 342 345 346 346 346 347 347 343 339 340 340 342 337 332 331 329 325 322 322 321 321 321 321 323 325 320 320 321 321 322 323 321 321 322 323 327 319 317 317 317 316
356 356 356 352 336 325 317 316 318 319 319 331 322 319 324 329 338 349 350 347 351 349 347 348 348 348 347 349 350 350 351 348 344 343 345 346 346 345 344 343 347 344 341 340 339 338 336 330 328 327 324 322 320 318 321 321 322 319 317 319 320 320 322 322 320 321 321 322 326 324 322 322 324 324
357 344 336 333 327 324 318 317 318 319 319 317 320 321 323 341 345 346 348 349 349 348 348 348 348 348 348 350 351 352 350 344 344 345 346 346 344 344 343 343 342 341 346 343 340 337 333 330 328 325 324 324 323 321 320 319 318 317 318 317 316 319 321 321 320 319 320 321 324 322 320 320 320 323
339 332 330 327 326 326 326 331 335 337 338 325 321 323 330 337 343 346 347 347 347 348 348 347 347 349 347 348 351 350 344 341 340 342 342 340 339 341 341 338 336 339 342 342 338 335 333 330 329 325 324 322 323 320 319 318 314 315 317 315 317 319 320 319 318 318 319 319 322 321 319 320 320 321
341 331 333 334 328 332 326 334 336 336 339 338 335 332 334 337 342 344 346 347 348 346 347 346 347 348 349 348 347 343 342 341 343 343 340 338 336 340 339 333 332 333 338 336 334 334 334 332 330 328 323 323 323 319 319 318 314 314 313 315 317 314 317 317 317 317 318 318 319 320 318 317 318 321
348 345 336 331 341 338 336 338 343 342 344 341 338 337 336 338 341 345 349 351 347 348 348 348 345 345 347 343 344 343 342 341 342 342 338 337 337 337 337 333 331 334 333 331 333 337 341 331 330 330 328 323 319 318 317 315 314 313 312 314 316 315 317 315 315 316 318 317 316 317 317 316 316 317
347 347 346 347 348 346 345 343 347 348 348 345 342 341 340 340 342 344 345 346 347 347 346 347 347 347 347 344 344 342 342 342 342 341 339 339 339 338 334 330 331 332 329 328 329 330 332 331 331 325 322 320 320 318 315 313 313 313 312 312 314 313 314 314 315 314 316 315 314 314 314 314 316 317
344 346 348 348 348 348 348 348 347 349 350 349 347 345 337 341 344 344 345 346 347 347 347 349 348 348 346 344 342 342 340 342 341 338 333 336 337 333 331 330 330 330 326 329 328 328 330 326 322 320 320 319 318 316 316 315 313 313 313 311 313 312 314 314 314 314 315 314 313 312 311 312 314 316
340 343 344 345 347 347 348 348 348 347 348 348 349 350 348 347 346 343 346 347 345 345 346 348 351 349 345 342 340 340 339 338 336 336 337 337 337 333 331 330 332 328 327 328 326 327 327 327 324 321 319 318 318 315 321 316 313 312 311 311 312 312 313 314 313 313 311 311 312 310 309 310 312 315
337 341 344 344 346 347 347 347 348 348 349 349 349 350 350 349 348 347 347 346 348 346 347 348 349 350 346 342 339 337 336 334 334 332 333 334 334 333 333 333 331 327 327 328 325 325 324 322 321 318 316 316 315 313 313 318 317 312 311 309 310 311 312 311 312 311 310 309 310 308 307 307 310 313
339 340 343 345 346 347 347 348 349 348 349 349 350 350 349 348 349 350 349 346 350 348 349 349 347 342 340 340 337 335 335 334 333 331 330 331 331 331 330 333 333 326 323 326 326 323 323 319 319 316 313 311 309 309 311 314 314 313 313 310 310 312 311 311 309 308 309 308 307 308 306 307 309 310
341 342 343 344 346 347 348 349 348 347 348 348 349 349 350 350 351 351 352 350 348 343 340 341 338 339 339 337 335 332 332 333 334 333 331 331 330 330 330 329 327 324 322 329 324 323 320 319 317 316 315 312 310 309 311 314 314 312 309 311 310 310 312 310 308 307 307 307 307 307 306 306 306 308
344 344 343 344 344 346 347 348 348 348 349 349 349 349 350 350 350 347 346 343 340 338 337 336 335 335 334 331 329 329 328 328 329 329 330 330 330 330 328 327 326 325 324 325 321 321 319 318 318 318 317 315 312 311 312 313 311 312 311 306 309 310 309 309 309 308 306 306 307 307 307 308 309 313
345 345 346 345 345 345 347 349 350 350 350 351 352 351 350 348 345 341 337 334 333 333 333 332 331 329 332 332 331 332 331 330 329 328 328 327 327 325 322 324 325 325 322 323 320 320 318 318 319 319 318 318 318 319 320 316 313 312 311 311 305 308 312 310 308 308 309 307 309 305 306 307 306 308
345 346 347 348 349 349 349 350 352 352 352 353 352 343 343 342 341 338 335 332 331 332 332 332 332 331 332 332 331 330 328 328 329 328 327 324 324 323 322 323 322 323 322 322 320 317 317 318 323 323 324 320 321 323 318 314 311 310 311 312 309 306 308 312 311 309 308 309 308 305 304 304 305 305
345 347 349 351 351 352 349 348 345 346 348 348 345 341 340 336 333 328 331 331 333 333 332 332 331 330 329 328 326 325 327 326 326 327 324 320 320 320 319 320 320 322 322 320 320 317 320 321 326 330 323 321 319 317 315 314 313 312 311 310 312 309 308 308 309 311 311 311 308 306 305 305 305 304
345 348 348 347 343 343 344 343 342 341 340 338 336 334 334 333 332 331 332 332 332 331 331 330 332 333 332 330 328 325 326 326 326 325 324 322 321 320 318 319 321 322 323 323 323 320 320 321 322 321 321 321 320 315 312 311 310 312 313 311 311 310 311 311 308 309 310 311 310 308 307 306 304 302
346 342 339 340 339 339 339 339 338 337 337 335 334 334 334 333 332 332 332 332 332 331 330 328 328 329 330 330 328 327 327 327 326 326 326 322 321 321 319 319 322 323 322 319 323 322 321 321 321 319 319 318 317 314 312 311 310 314 314 312 311 310 310 311 311 310 311 312 311 309 310 310 309 310
331 332 331 331 331 332 333 334 335 335 334 334 333 333 331 332 330 331 330 330 331 332 329 326 325 325 328 329 329 327 326 323 325 326 325 323 321 321 320 321 321 322 321 320 321 321 321 322 321 320 319 318 316 314 316 315 312 313 314 312 313 313 311 311 309 308 308 309 309 308 308 310 312 310
Wind_Speed
4 3 5 6 5 5 3 2 1 2 4 5 5 5 4 5 3 1 1 2 1 3 2 1 2 0 2 4 3 4 4 6 7 5 6 7 7 10 15 17 17 17 17 17 18 18 18 19 19 20 20 20 20 19 19 19 19 19 19 19 20 21 21 21 20 20 20 20 20 20 20 20 20 22
4 4 3 4 5 5 4 4 3 1 4 4 3 2 3 6 4 3 2 3 2 3 2 1 2 4 4 4 4 3 5 8 8 4 6 7 7 13 15 16 17 17 17 18 18 18 18 19 19 19 20 20 20 20 20 20 20 20 20 20 21 22 22 22 21 21 21 21 21 21 21 20 21 21
4 4 4 3 5 4 5 4 3 0 2 3 3 2 1 3 4 5 4 1 4 2 2 2 0 1 2 4 4 4 5 6 7 6 6 7 11 15 12 15 16 17 17 18 18 18 19 19 18 19 19 19 19 20 20 20 20 21 21 21 22 22 22 22 22 22 22 22 22 22 22 22 22 21
4 4 4 4 3 3 2 2 2 1 3 3 4 3 3 3 4 5 4 4 8 3 2 4 6 4 3 3 4 6 6 6 9 6 7 9 11 9 8 12 15 16 16 17 17 17 18 18 19 19 20 20 20 20 20 20 20 21 21 22 22 22 22 22 22 22 22 22 22 23 23 22 21 21
5 5 5 5 5 4 3 3 2 3 3 4 4 4 4 5 4 5 5 4 7 6 3 4 4 4 2 3 3 5 6 5 5 6 7 7 7 8 7 8 11 13 15 16 17 17 17 18 19 19 19 20 20 20 20 20 20 21 21 21 22 22 22 22 22 22 22 22 22 22 22 22 22 22
5 4 6 6 6 5 5 4 5 5 4 3 4 5 6 6 6 5 5 6 5 8 3 4 4 5 3 5 2 4 6 6 5 5 5 5 6 7 7 6 7 12 14 15 15 16 17 18 19 19 19 19 19 19 19 19 20 20 20 20 21 21 21 21 21 22 22 22 22 22 22 22 22 22
6 5 5 6 6 4 5 5 6 5 5 5 5 6 5 6 6 6 6 5 5 7 7 4 5 4 3 4 5 4 4 5 4 5 6 6 6 6 7 6 6 10 14 16 16 17 17 17 18 18 18 17 17 18 18 19 19 19 19 19 19 20 21 21 21 21 21 21 21 22 22 22 22 21
7 7 6 5 6 5 6 5 5 6 5 5 4 4 5 6 6 6 5 6 6 6 6 3 5 3 4 5 4 5 5 6 7 6 7 6 6 6 5 5 6 8 13 15 15 15 15 16 16 15 15 16 17 16 16 17 17 18 18 19 19 18 19 20 21 20 20 20 20 21 21 21 21 21
8 7 7 7 5 5 6 5 6 6 6 7 6 6 4 5 6 5 6 7 6 6 7 5 3 4 4 4 4 4 5 6 6 6 6 7 7 7 7 6 7 10 14 14 16 17 17 15 14 14 14 14 13 13 15 15 16 17 18 18 19 19 18 18 18 18 18 19 20 20 20 20 21 21
8 8 8 7 6 6 7 7 6 6 7 6 6 6 6 6 4 5 5 5 5 6 6 5 6 3 5 4 4 4 5 7 7 7 7 5 6 6 7 7 6 6 6 6 6 6 7 9 11 11 10 10 11 11 13 14 15 17 17 18 18 17 17 17 17 17 17 17 17 19 19 19 19 19
7 8 8 8 7 7 8 8 7 7 6 7 7 7 7 6 5 5 5 5 5 5 6 6 6 7 5 5 7 4 5 7 7 7 7 7 6 5 6 7 6 5 6 7 10 9 10 11 7 7 9 9 9 11 11 13 14 15 15 15 15 16 16 17 16 17 17 16 16 16 17 18 18 18
9 9 8 8 8 9 8 8 8 7 7 6 6 7 6 6 6 6 6 5 5 5 5 6 7 5 6 4 5 3 1 3 5 5 6 8 7 5 3 4 5 3 3 6 7 5 5 6 8 8 7 10 12 13 12 12 13 11 12 13 13 13 14 14 15 15 16 16 15 15 16 17 17 17
8 8 9 9 8 9 11 13 11 10 9 7 7 7 6 6 6 6 5 6 6 6 6 7 5 5 6 6 5 5 4 6 8 6 3 4 3 3 3 5 4 4 4 4 5 6 5 7 7 7 6 6 7 9 11 9 11 9 6 7 7 9 10 11 12 13 14 14 14 14 14 15 15 15
9 9 9 9 14 15 15 15 15 15 15 14 10 8 7 8 7 7 7 7 6 6 7 8 7 7 8 7 5 5 4 5 4 4 1 1 3 3 4 3 3 2 2 3 6 7 7 7 7 6 6 6 5 5 4 5 5 10 12 11 11 12 12 13 13 13 13 13 13 13 12 13 13 14
10 9 10 9 11 13 16 15 18 18 17 17 16 15 13 11 9 7 8 7 6 7 7 7 6 7 9 8 5 6 6 4 2 1 1 2 2 3 6 8 5 2 3 4 5 8 8 5 7 7 7 7 4 4 3 9 12 10 10 10 11 13 15 15 14 14 14 14 13 12 11 10 11 13
9 9 9 9 9 8 8 9 11 15 18 18 18 17 15 14 14 13 10 9 7 6 7 7 8 6 8 7 4 5 3 2 2 2 1 2 3 4 4 5 6 4 2 6 6 8 7 4 5 6 7 6 4 3 7 12 9 11 10 10 14 15 14 13 14 15 15 15 15 13 11 9 9 11
9 8 8 8 8 9 15 11 8 9 12 15 18 17 17 16 15 14 14 12 9 6 7 7 8 8 5 5 6 3 2 1 4 3 3 3 3 4 5 5 5 6 3 5 5 7 7 4 5 6 6 5 5 6 8 10 10 12 13 14 15 14 14 15 17 19 19 19 18 16 12 9 8 9
9 9 9 9 8 7 7 7 9 8 9 9 10 11 10 10 13 14 15 15 13 7 7 7 9 9 4 9 8 7 5 5 6 4 7 4 5 6 7 5 4 5 5 5 3 5 7 5 3 3 5 5 6 6 9 10 11 14 14 14 14 15 15 16 17 19 19 20 20 17 12 8 7 8
10 9 9 9 9 9 8 7 6 7 7 7 8 8 10 11 10 9 10 9 8 8 8 8 10 11 9 9 10 9 7 7 8 6 6 6 6 4 1 3 4 5 5 3 2 4 4 3 6 5 6 5 6 6 7 8 12 13 13 12 13 13 15 17 18 18 18 19 19 17 12 8 7 8
9 10 10 9 10 10 10 12 15 12 7 6 7 8 8 8 8 9 11 11 10 9 9 9 10 10 11 12 11 10 8 6 5 6 3 2 3 2 4 6 3 4 1 2 1 1 2 2 3 4 5 4 5 6 5 9 14 15 13 12 13 17 18 18 18 18 18 20 20 18 12 9 7 7
8 9 10 11 11 11 10 13 16 16 13 7 8 8 8 8 7 9 7 11 15 15 16 17 17 16 16 15 16 14 11 8 4 2 3 7 5 4 6 5 3 5 1 1 0 1 3 2 2 3 4 5 4 4 6 7 12 15 13 13 14 16 16 17 18 18 18 18 20 20 15 11 8 6
5 7 12 12 11 11 11 14 16 16 13 10 9 7 7 7 8 9 6 5 8 15 17 17 16 15 14 14 12 11 12 11 6 6 8 7 3 5 5 6 4 3 1 1 1 1 1 3 3 4 2 2 3 3 6 8 10 11 9 13 14 16 16 16 17 17 16 17 17 17 15 12 7 4
8 7 8 12 10 10 12 14 16 17 14 10 10 10 8 9 10 10 5 6 5 4 4 6 7 9 12 11 9 9 12 11 9 7 8 6 5 6 6 6 4 4 1 1 0 2 2 5 5 4 5 1 2 3 7 8 7 6 6 8 9 13 15 15 14 14 15 16 16 16 15 12 7 4
9 10 10 11 14 15 14 13 15 16 17 12 10 8 9 10 12 9 5 6 6 5 6 6 6 8 8 7 6 6 7 8 8 8 8 7 6 7 7 6 5 5 2 1 1 1 1 2 3 3 4 3 6 5 6 7 6 6 6 9 9 12 14 14 12 14 15 16 17 18 16 13 8 5
10 10 11 10 14 17 17 16 14 13 14 14 10 10 10 11 10 5 5 7 10 6 4 4 4 5 5 5 5 6 7 7 7 7 7 7 7 7 6 5 5 5 1 1 3 2 0 1 2 2 3 0 2 5 5 5 6 6 6 8 8 9 8 9 8 9 12 15 16 20 17 16 12 6
10 11 11 10 14 18 17 16 15 15 13 15 9 10 13 13 10 7 6 6 6 5 4 4 4 3 2 4 5 5 5 5 5 4 6 7 6 6 6 6 5 2 1 2 5 3 2 2 3 3 1 2 3 2 6 6 4 6 7 7 6 7 7 8 8 9 9 9 9 12 11 14 13 11
12 11 10 10 14 14 15 16 16 16 17 12 11 15 14 14 13 10 6 6 6 6 5 5 6 5 3 2 2 4 4 2 3 3 3 4 5 4 3 3 3 3 3 2 1 3 2 1 1 4 2 1 3 5 4 5 7 7 7 7 7 6 6 6 8 9 9 9 8 14 12 11 14 14
12 10 9 10 13 14 16 16 16 17 15 12 16 17 17 15 9 6 6 5 6 5 5 6 5 4 3 3 3 2 3 2 3 4 4 4 4 4 3 2 2 3 2 1 2 3 5 4 2 1 2 3 4 4 6 4 4 6 9 7 5 6 6 8 7 8 8 8 7 9 10 10 10 10
10 11 12 12 15 15 15 15 13 12 13 16 16 17 17 14 6 6 5 6 5 6 7 6 5 5 5 5 5 4 3 2 3 3 3 3 3 3 2 1 2 1 2 3 4 5 6 6 4 3 2 1 2 2 3 4 4 7 7 9 8 7 7 8 8 8 9 8 8 8 9 8 9 9
14 13 15 13 7 5 5 5 5 7 10 14 16 15 11 6 7 7 7 6 7 8 7 7 7 7 4 5 5 3 3 5 6 4 4 5 2 2 3 2 1 1 2 4 6 6 6 6 6 3 1 3 4 2 2 4 5 6 6 6 8 4 4 8 8 7 8 9 8 7 7 7 8 9
6 7 6 7 8 6 11 10 9 8 8 6 5 5 6 6 6 7 8 8 8 8 7 7 6 5 5 2 3 4 6 6 5 6 6 6 5 5 4 4 0 2 2 4 5 6 5 5 5 5 2 3 4 3 1 1 3 6 6 6 6 7 7 6 7 7 7 7 6 5 6 7 8 9
5 5 3 4 3 4 3 3 2 3 4 5 4 4 5 6 7 7 7 6 4 5 6 5 4 3 3 4 5 5 6 6 6 5 5 4 4 3 4 1 0 0 3 3 2 2 4 3 5 6 5 5 4 0 2 2 2 4 5 5 4 4 4 6 7 7 7 6 5 6 8 8 9 8
4 4 5 5 5 6 7 5 5 5 5 5 5 4 5 5 5 5 6 7 7 7 5 6 6 6 6 6 6 7 7 8 8 6 6 4 5 2 2 2 1 0 4 3 2 1 4 7 8 8 7 6 4 2 2 2 3 2 3 5 4 4 4 5 5 6 5 5 6 6 7 7 7 7
9 8 7 7 8 7 6 7 6 6 6 5 5 5 5 5 6 6 7 7 7 6 7 7 7 8 7 7 8 8 8 6 5 5 6 4 4 4 3 1 1 2 3 6 5 3 5 5 7 6 6 6 5 4 3 3 1 3 3 2 1 3 3 2 4 4 6 5 5 5 6 7 7 7
9 9 9 9 8 8 7 7 7 6 6 6 6 6 6 6 8 8 8 8 7 7 7 8 8 7 8 8 8 8 5 6 6 4 2 2 3 4 5 4 3 3 5 5 5 3 5 5 5 5 4 3 3 1 3 2 1 1 1 1 2 1 2 1 1 3 3 4 3 4 3 4 7 7
9 10 10 9 9 9 8 9 8 7 6 6 6 6 6 7 7 9 9 9 9 9 8 8 8 7 6 6 6 6 7 7 5 5 3 3 3 4 5 5 5 5 5 5 6 3 5 5 5 4 1 0 1 0 1 2 3 3 1 1 2 1 1 1 0 1 3 4 3 4 6 6 6 7
8 8 9 9 8 8 10 9 7 6 6 6 6 6 7 7 9 10 10 10 10 9 8 7 3 5 6 6 6 5 6 7 6 7 7 7 6 5 4 3 4 6 6 5 6 6 5 2 3 5 4 3 2 2 3 2 5 4 2 1 1 2 1 1 1 3 2 2 3 3 3 2 3 4
9 8 8 8 8 7 6 6 6 6 6 6 6 7 7 8 7 9 8 8 7 5 6 7 7 7 6 6 7 7 7 7 7 8 7 6 6 4 4 3 4 5 6 4 5 5 5 6 4 4 5 4 3 2 3 2 3 4 5 4 2 4 2 0 2 1 1 0 2 1 1 4 2 1
7 7 7 7 6 6 5 5 6 7 6 7 7 8 9 7 6 4 5 5 6 7 7 7 8 8 8 7 8 8 7 6 4 5 4 3 4 5 6 5 5 4 3 5 4 4 5 4 6 6 6 6 5 4 5 6 6 5 4 8 4 4 4 3 1 1 3 2 2 1 1 1 1 5
6 6 6 6 6 6 6 6 6 6 7 7 8 7 7 6 5 6 7 7 7 6 7 7 8 8 7 7 6 5 5 5 5 2 2 2 3 4 4 3 4 4 3 5 5 3 5 6 6 7 6 7 6 5 4 4 1 0 3 4 9 8 6 6 4 3 1 3 4 4 1 1 1 0
6 6 6 7 7 7 7 7 7 7 7 8 7 3 3 6 7 7 7 8 8 8 8 8 8 8 7 6 6 7 7 5 4 3 3 4 5 5 5 4 3 3 5 5 6 6 6 8 9 11 8 5 4 4 4 0 2 3 5 6 6 9 12 7 6 5 3 3 4 4 3 2 3 1
6 6 5 6 7 6 4 3 1 2 2 4 4 6 6 6 6 9 9 8 7 7 7 7 9 9 9 7 5 5 6 5 2 2 2 6 8 9 9 7 6 4 5 6 8 8 8 6 5 5 4 3 5 5 6 7 6 4 4 3 3 6 8 10 7 8 5 5 4 2 0 1 1 0
7 6 3 0 3 4 5 5 4 5 5 6 8 8 9 9 8 9 8 7 7 9 8 7 6 5 5 5 4 3 3 3 4 4 3 4 6 5 4 5 6 5 5 6 8 9 7 6 5 5 5 5 6 6 8 7 6 5 3 3 5 4 5 8 9 6 5 8 7 6 5 4 3 2
4 6 6 5 5 5 5 5 5 5 7 8 8 8 7 8 8 8 8 7 8 8 8 8 7 7 6 6 6 5 5 5 3 3 4 7 7 8 6 4 4 4 6 6 6 6 6 5 6 6 6 7 6 6 8 6 5 6 6 4 2 3 6 5 5 4 5 6 9 7 6 7 6 7
8 9 8 8 7 7 7 5 5 5 6 7 7 7 7 6 7 7 7 7 7 6 6 6 5 4 4 6 6 5 4 5 6 7 7 5 5 5 5 5 4 3 5 5 4 4 4 6 5 4 5 6 5 7 8 7 6 5 5 4 6 6 6 4 5 6 5 6 7 7 7 8 8 7
Wind_Direction
233 218 200 197 224 258 263 283 141 148 143 147 157 151 148 150 141 214 311 291 266 300 45 348 302 255 251 204 212 170 201 223 218 207 212 222 227 227 227 231 234 236 238 241 244 247 249 251 253 255 256 256 256 256 256 256 256 255 255 255 255 255 255 253 250 247 244 242 239 237 236 235 232 234
224 241 226 207 212 225 247 264 261 162 153 138 124 125 140 137 152 175 198 275 243 275 305 228 329 350 343 321 293 236 232 239 223 213 219 224 230 230 226 230 235 238 240 243 245 248 250 251 253 254 256 257 257 257 257 256 256 255 255 255 255 254 254 253 251 249 247 244 242 239 238 235 232 233
192 225 244 215 209 212 213 239 270 281 164 149 139 160 159 173 156 169 151 208 284 192 255 286 346 357 285 257 266 279 263 257 244 233 230 234 236 236 237 234 236 238 241 244 247 248 250 253 255 257 258 258 258 259 258 257 257 257 257 256 255 254 254 253 253 251 249 247 245 243 241 239 237 235
196 216 233 240 217 207 175 211 230 202 197 178 166 173 179 185 182 159 166 194 257 260 257 280 288 275 263 275 263 265 267 254 238 235 237 241 244 247 247 244 240 242 246 249 251 253 255 255 256 256 257 258 258 258 258 257 257 257 257 257 257 257 256 255 254 253 252 250 248 246 244 242 241 240
198 205 208 228 231 212 207 228 237 254 208 197 186 190 194 204 192 164 181 207 261 289 242 252 272 283 285 288 214 249 263 275 267 242 242 244 244 245 245 248 249 245 248 251 253 254 255 256 256 257 257 258 259 260 261 261 260 258 257 257 258 258 258 257 256 255 254 252 250 249 248 244 241 240
220 199 205 216 217 206 201 207 223 225 244 227 212 207 193 201 209 197 174 215 222 262 294 289 284 283 270 280 256 254 279 283 288 281 264 260 247 250 252 254 256 254 252 252 253 254 256 257 259 259 260 261 263 264 265 265 264 262 261 259 260 261 261 259 257 256 255 255 254 252 251 248 243 241
218 221 207 211 204 195 200 210 213 209 224 230 215 219 209 211 218 208 199 192 228 248 263 228 257 248 264 227 273 281 269 268 262 278 278 260 255 246 248 253 261 258 256 257 257 257 259 262 263 264 265 267 267 266 265 265 267 268 268 265 260 260 261 260 257 256 256 256 256 255 253 251 248 243
204 218 222 223 207 198 199 211 214 220 220 229 232 217 215 215 221 219 209 208 213 227 254 253 230 252 256 266 255 262 269 275 280 268 274 271 265 264 255 245 251 254 252 254 257 260 262 265 267 269 270 267 265 270 274 273 272 272 272 272 271 263 260 262 262 259 256 256 255 254 253 252 251 249
198 207 217 225 213 199 207 217 216 215 219 225 231 246 234 205 214 219 210 217 214 229 244 264 241 232 246 251 257 243 268 278 269 269 259 259 259 267 264 266 264 265 264 264 268 272 275 276 274 270 268 273 277 273 271 272 273 274 273 272 273 272 269 268 268 265 259 253 253 253 252 252 252 251
198 203 212 219 214 210 209 218 218 214 215 212 217 227 239 241 231 222 226 216 215 217 237 243 280 252 252 283 257 242 240 263 280 280 269 272 266 262 273 266 266 269 271 276 273 280 278 274 278 285 286 281 275 275 273 273 273 273 274 275 278 284 286 283 279 275 268 262 256 253 252 250 248 249
199 202 208 213 211 213 215 219 216 213 216 212 219 218 223 227 225 234 237 231 236 239 252 262 246 267 256 233 272 254 232 246 246 261 280 279 267 260 257 277 279 278 276 276 281 286 291 298 309 312 310 300 289 277 273 273 275 276 284 295 299 298 296 295 292 286 281 275 268 260 255 253 250 247
208 207 208 210 213 215 217 215 222 211 214 212 219 221 216 220 220 229 233 230 226 235 244 247 260 247 264 264 252 288 299 293 287 252 238 258 270 289 282 249 265 276 278 293 298 309 321 325 317 313 312 308 300 295 290 284 282 318 324 314 312 312 310 307 303 298 291 284 275 264 258 254 252 250
206 210 213 216 216 214 217 217 216 215 211 204 215 225 212 217 214 224 226 228 229 238 240 259 256 265 270 259 270 286 272 256 256 258 250 276 267 243 278 294 283 264 283 305 320 316 321 313 315 316 309 291 288 288 289 301 21 31 3 9 353 337 325 317 312 308 305 300 291 277 265 256 251 251
208 211 214 218 216 218 219 219 220 219 217 212 207 209 203 211 214 220 225 225 223 226 239 247 251 263 262 262 244 246 241 240 262 297 278 251 286 326 295 278 272 282 35 336 317 308 308 312 308 310 299 290 294 300 317 39 42 36 30 18 9 0 353 344 338 333 327 321 313 299 279 263 252 246
208 212 215 222 225 221 220 220 220 222 223 223 221 216 204 199 199 213 220 227 215 216 230 238 237 244 262 262 243 242 253 256 226 209 207 267 307 325 326 313 301 302 52 325 303 303 304 319 305 303 302 298 322 328 6 40 41 31 24 11 0 1 358 353 350 347 341 336 329 319 300 273 255 247
207 208 210 217 223 228 225 218 224 226 227 226 227 228 222 213 209 205 203 216 221 217 229 237 236 240 247 263 245 247 233 245 286 262 273 272 301 295 289 276 287 260 0 314 309 296 298 302 285 296 292 318 328 348 27 35 40 23 5 2 2 7 0 357 353 347 341 338 335 330 318 294 266 253
208 208 210 212 219 224 231 227 213 213 226 230 231 232 231 229 222 222 223 216 212 197 213 225 242 227 239 259 255 222 234 197 267 280 291 278 277 262 248 257 268 290 299 311 298 292 292 301 293 290 304 321 332 350 7 25 24 5 9 8 9 11 9 2 356 351 348 343 338 336 333 311 280 260
210 208 207 213 221 227 229 229 223 213 215 218 224 232 234 235 238 235 233 238 244 235 226 225 244 250 207 246 255 250 243 256 255 269 275 270 272 256 246 236 244 272 288 261 279 294 293 295 317 311 306 335 336 348 351 19 7 12 7 11 14 15 12 4 356 352 347 344 341 342 340 320 290 267
211 210 209 211 218 222 229 231 222 221 222 219 221 224 229 231 233 230 230 227 225 223 226 233 240 253 245 245 251 254 240 239 249 243 249 252 241 233 271 304 271 279 267 256 165 250 273 329 9 328 320 330 334 329 348 357 9 11 9 16 15 20 14 5 359 350 346 342 340 342 341 326 301 273
211 211 211 213 218 219 221 227 228 226 214 215 223 223 230 237 237 236 230 222 214 215 220 226 234 240 240 239 242 243 241 244 248 250 256 282 269 289 291 277 281 264 330 78 141 252 287 324 14 307 308 321 331 329 350 355 7 359 6 10 20 24 12 4 357 349 344 344 342 345 345 333 315 290
209 211 212 214 217 220 220 218 215 224 222 222 222 225 229 232 235 244 234 211 215 221 226 230 232 237 241 244 244 249 252 242 229 208 286 266 267 282 283 278 267 265 204 331 61 199 292 320 358 304 296 316 311 340 4 1 355 350 356 4 24 20 10 2 353 348 349 354 359 4 2 349 332 319
213 212 217 215 220 220 224 213 205 212 211 224 227 223 225 230 236 245 229 211 221 227 232 238 243 247 250 254 259 251 238 225 199 191 228 245 222 240 237 264 258 278 60 283 290 34 275 318 349 341 280 326 310 10 13 2 346 346 353 6 19 12 7 358 350 349 357 0 1 2 356 347 344 345
229 237 237 232 223 221 227 214 203 206 200 213 222 222 225 235 242 244 216 216 218 205 219 248 248 256 250 245 233 232 219 208 204 206 224 239 213 235 242 252 288 311 304 279 261 18 314 18 327 3 352 5 290 19 9 354 338 343 354 8 2 6 359 353 349 352 358 358 353 353 353 340 328 323
229 235 242 239 237 234 234 222 206 204 200 206 218 217 221 232 240 240 225 222 210 226 226 240 224 236 239 237 222 225 220 218 216 219 226 231 218 223 232 232 220 238 252 276 14 91 294 48 333 3 77 356 323 322 2 342 343 348 9 5 0 356 355 349 350 355 356 354 351 348 350 347 323 311
222 227 231 236 236 235 235 233 224 210 207 211 213 213 222 224 235 220 223 232 235 229 216 221 229 234 239 230 217 216 221 226 224 217 223 228 220 216 221 219 221 237 194 224 233 102 165 3 341 19 18 36 278 329 325 332 328 1 11 9 354 350 350 347 348 352 354 352 353 358 7 5 348 339
224 226 225 228 231 231 235 237 232 220 213 220 222 226 226 232 223 212 218 218 214 204 220 236 257 268 242 232 225 224 223 231 226 224 224 216 208 201 200 192 187 200 202 213 149 113 104 26 60 46 353 26 292 331 327 329 317 355 2 360 355 342 343 344 354 354 356 353 358 1 13 13 14 4
222 223 224 229 228 225 228 230 230 226 220 213 222 230 233 231 218 212 210 204 208 223 229 234 240 240 253 277 244 233 236 221 136 123 106 108 107 93 81 109 138 163 181 191 159 120 111 122 46 81 7 358 344 338 350 335 333 344 354 356 343 339 341 354 1 356 354 354 0 360 1 6 9 357
220 221 220 222 220 216 219 223 226 227 220 217 222 224 230 229 213 205 203 207 214 223 237 240 244 244 243 253 266 258 252 193 148 110 99 98 99 107 96 80 91 131 163 181 109 123 123 124 100 97 87 32 12 356 336 312 317 338 334 337 322 338 354 5 2 357 354 353 6 11 7 4 359 356
218 220 215 210 212 218 221 224 231 237 235 231 229 225 225 222 202 205 205 211 211 225 235 239 244 243 227 228 236 238 225 122 96 100 86 90 100 111 123 153 168 197 207 128 136 129 130 119 133 110 57 58 37 337 360 312 333 335 336 336 352 347 6 8 5 2 357 356 6 17 12 358 357 354
211 203 208 207 196 191 204 203 210 221 227 226 226 233 233 218 211 203 205 212 217 235 240 243 245 246 234 231 234 211 148 152 159 142 135 129 156 151 158 119 289 262 207 149 136 135 127 133 131 119 91 44 106 70 349 354 333 322 334 346 331 290 19 4 5 2 3 2 360 11 1 2 356 359
213 190 166 163 175 169 178 187 198 207 225 224 221 215 216 211 211 208 206 210 215 223 230 236 241 237 235 222 176 157 165 168 171 167 155 158 186 181 175 137 213 320 354 118 135 155 139 130 141 129 125 109 75 44 344 74 341 338 333 335 351 13 338 355 357 2 5 0 349 356 5 7 3 5
190 163 129 119 138 138 154 204 173 200 203 209 201 204 197 208 211 214 213 222 222 224 218 229 221 226 197 178 174 163 167 173 171 166 152 150 156 143 129 94 260 293 94 114 137 160 139 124 99 86 101 124 120 43 55 74 356 327 333 335 338 328 339 359 357 358 353 345 348 8 15 10 5 358
164 135 158 183 179 199 209 205 210 210 205 212 202 197 196 202 198 198 186 203 211 212 200 209 207 215 194 189 167 169 174 180 176 163 133 149 148 132 93 146 176 52 136 162 164 210 60 67 75 90 96 85 91 121 114 45 336 312 341 333 340 347 338 345 360 357 346 1 9 3 9 6 1 359
193 193 200 203 205 204 203 211 211 213 208 207 202 206 197 192 196 199 206 208 208 193 200 201 202 204 192 182 176 181 191 179 140 129 137 157 149 132 142 130 249 235 182 162 182 167 112 87 92 81 82 88 88 94 118 130 25 331 317 313 336 11 320 334 356 3 10 11 350 7 18 10 3 3
201 209 213 220 222 220 218 220 220 211 208 208 201 203 194 198 202 203 207 209 201 200 200 204 209 198 185 182 182 182 149 116 116 128 132 130 162 144 144 156 208 221 197 156 166 194 122 138 126 114 93 69 52 9 96 113 199 309 292 310 321 22 345 309 16 13 19 9 359 41 36 23 10 5
193 208 212 216 220 220 226 229 223 214 214 208 201 200 202 209 208 205 214 203 199 203 202 204 211 199 178 158 144 106 106 122 130 132 151 186 186 194 186 181 180 207 194 166 170 163 120 156 148 118 122 121 86 8 302 164 182 219 137 322 297 315 303 291 324 108 53 40 17 42 44 25 6 6
196 206 212 218 217 213 223 225 223 220 215 217 211 208 210 211 209 210 210 190 201 204 198 191 163 119 126 124 126 149 150 148 163 168 180 197 189 196 205 208 187 189 184 174 162 154 131 115 93 109 103 94 118 204 242 251 278 267 140 173 275 261 250 250 155 79 58 100 51 62 90 76 31 5
200 197 206 216 220 222 223 222 213 215 213 210 220 224 225 224 211 205 195 183 170 133 126 126 133 139 135 141 141 155 171 166 169 181 192 179 173 190 228 235 207 188 182 150 146 150 139 131 131 143 139 154 197 215 233 252 312 272 172 150 202 251 242 121 26 102 191 212 135 180 133 81 115 134
193 193 199 208 212 216 217 215 206 213 210 211 218 227 228 216 198 164 116 112 121 131 127 126 133 141 140 141 151 157 159 154 152 183 186 184 178 189 206 196 176 196 141 111 134 139 138 145 169 179 168 171 182 204 186 173 214 236 212 165 183 239 242 150 161 250 171 189 235 254 269 216 254 237
187 182 186 190 207 200 214 213 215 213 216 218 221 224 219 188 135 116 119 123 117 110 115 119 118 114 112 116 124 130 126 147 153 161 153 165 172 154 156 148 149 172 158 127 158 190 169 180 193 198 191 198 206 201 175 157 130 105 284 249 198 205 214 159 181 184 250 229 177 146 189 152 121 286
180 178 193 190 198 199 204 212 217 218 219 223 219 180 107 110 125 128 127 130 132 130 125 124 120 112 116 124 146 152 139 146 158 188 199 153 154 159 176 147 167 180 187 158 173 185 205 208 212 201 186 188 127 97 67 34 237 220 230 249 261 261 256 203 170 170 194 213 160 145 156 163 171 171
189 196 198 202 212 214 201 194 167 168 178 165 129 99 90 80 85 107 115 116 115 111 114 120 123 134 145 154 149 133 142 154 180 225 190 177 165 172 178 169 187 195 188 175 176 197 216 215 223 200 198 156 125 159 208 215 228 243 216 240 245 249 276 274 207 175 174 169 135 125 81 350 30 88
190 203 207 41 54 71 89 112 119 122 105 84 88 103 117 124 125 113 116 117 118 118 120 115 115 119 145 146 144 143 122 178 207 211 190 186 158 185 175 183 189 199 198 204 189 197 212 207 212 201 183 185 209 179 209 218 222 219 210 209 219 228 256 274 282 265 241 241 205 177 171 168 139 208
93 82 67 75 75 66 60 71 82 86 101 113 121 121 120 124 124 129 132 131 125 127 129 138 155 158 151 144 138 133 184 225 234 228 201 197 197 196 192 186 183 208 223 202 179 207 218 206 212 187 174 210 212 200 227 223 220 212 211 211 183 184 224 243 250 295 305 298 289 268 221 193 207 203
69 69 62 48 47 42 39 39 59 87 104 114 117 112 109 100 106 114 111 116 125 132 140 153 157 140 125 130 149 173 207 233 229 211 202 210 223 193 176 187 194 196 223 219 204 226 209 216 224 202 207 220 206 212 226 214 214 190 213 204 213 208 208 195 207 227 243 266 262 261 267 271 272 266